This is the latest recevied weather packets stored in our database for station/object W1RCP. If no packets are shown the sender has not sent any weather packets the latest 10 day(s).
| Time | Temp. | Humidity | Pressure | Rain* | Wind** | Luminosity | Snow |
|---|---|---|---|---|---|---|---|
| 1778198300 | 24.44° C | 87% | 1022.9 hPa | 0 mm | - | 15 W/m² | - |
| 1778197998 | 24.44° C | 87% | 1022.9 hPa | 0 mm | - | 21 W/m² | - |
| 1778197694 | 24.44° C | 86% | 1023 hPa | 0 mm | - | 35 W/m² | - |
| 1778197391 | 25° C | 86% | 1023.1 hPa | 0 mm | - | 30 W/m² | - |
| 1778197087 | 25° C | 85% | 1022.9 hPa | 0 mm | - | 46 W/m² | - |
| 1778196785 | 25° C | 85% | 1023.1 hPa | 0 mm | - | 52 W/m² | - |
| 1778196483 | 25° C | 85% | 1023.3 hPa | 0 mm | - | 43 W/m² | - |
| 1778196179 | 24.44° C | 85% | 1023.2 hPa | 0 mm | - | 32 W/m² | - |
| 1778195876 | 24.44° C | 85% | 1023.5 hPa | 0 mm | - | 33 W/m² | - |
| 1778195573 | 25° C | 84% | 1023.3 hPa | 0 mm | - | 28 W/m² | - |
| 1778195269 | 25° C | 84% | 1023.4 hPa | 0 mm | - | 24 W/m² | - |
| 1778194967 | 25° C | 83% | 1023.4 hPa | 0 mm | - | 27 W/m² | - |
| 1778194666 | 25° C | 83% | 1023.5 hPa | 0 mm | - | 27 W/m² | - |
| 1778194363 | 25° C | 82% | 1023.6 hPa | 0 mm | - | 38 W/m² | - |
| 1778194059 | 25° C | 82% | 1023.5 hPa | 0 mm | - | 78 W/m² | - |
| 1778193756 | 25° C | 82% | 1023.7 hPa | 0 mm | - | 69 W/m² | - |
| 1778193452 | 25° C | 81% | 1023.5 hPa | 0 mm | - | 116 W/m² | - |
| 1778193149 | 25° C | 82% | 1023.5 hPa | 0 mm | - | 177 W/m² | - |
| 1778192845 | 25° C | 82% | 1023.4 hPa | 0 mm | - | 189 W/m² | - |
| 1778192542 | 25° C | 81% | 1023.3 hPa | 0 mm | - | 162 W/m² | - |
| 1778192239 | 25° C | 81% | 1023.4 hPa | 0 mm | - | 134 W/m² | - |
| 1778191935 | 25° C | 81% | 1023.3 hPa | 0 mm | - | 141 W/m² | - |
| 1778191632 | 25° C | 81% | 1023.3 hPa | 0 mm | - | 156 W/m² | - |
| 1778191330 | 25° C | 80% | 1023.4 hPa | 0 mm | - | 253 W/m² | - |
| 1778191025 | 25° C | 80% | 1023.5 hPa | 0 mm | - | 234 W/m² | - |
* Rain latest hour (hover to see other rain measurements)
** Current wind speed in m/s (hover to see current wind gust speed)